TimeEDT,TemperatureF,Dew PointF,Humidity,Sea Level PressureIn,VisibilityMPH,Wind Direction,Wind SpeedMPH,Gust SpeedMPH,PrecipitationIn,Events,Conditions,WindDirDegrees,DateUTC
12:42 AM,55.4,53.6,94,30.19,10.0,NE,11.5,-,0.01,,Overcast,50,2013-10-10 04:42:00
12:54 AM,55.9,54.0,93,30.19,10.0,NE,11.5,19.6,0.01,Rain,Light Rain,50,2013-10-10 04:54:00
1:30 AM,55.4,53.6,94,30.18,10.0,NE,10.4,-,0.01,Rain,Light Rain,50,2013-10-10 05:30:00
1:54 AM,55.9,54.0,93,30.17,8.0,NE,11.5,-,0.03,Rain,Rain,40,2013-10-10 05:54:00
2:54 AM,55.9,54.0,93,30.15,8.0,NE,13.8,-,0.04,Rain,Light Rain,40,2013-10-10 06:54:00
3:54 AM,57.0,55.0,93,30.13,8.0,NE,15.0,24.2,0.09,Rain,Light Rain,50,2013-10-10 07:54:00
4:03 AM,57.2,55.4,94,30.13,10.0,NE,17.3,-,0.00,Rain,Light Rain,50,2013-10-10 08:03:00
4:54 AM,57.0,55.0,93,30.13,6.0,NE,17.3,26.5,0.06,Rain,Rain,40,2013-10-10 08:54:00
5:54 AM,57.0,55.0,93,30.11,10.0,NE,16.1,25.3,0.02,Rain,Light Rain,40,2013-10-10 09:54:00
6:29 AM,57.2,55.4,94,30.11,10.0,NE,18.4,26.5,0.01,Rain,Light Rain,40,2013-10-10 10:29:00
6:54 AM,57.0,55.9,96,30.10,10.0,NNE,15.0,21.9,0.03,Rain,Light Rain,30,2013-10-10 10:54:00
7:43 AM,57.2,55.4,94,30.12,1.8,NE,17.3,-,0.08,Rain,Heavy Rain,50,2013-10-10 11:43:00
7:51 AM,57.2,55.4,94,30.11,2.5,NE,16.1,-,0.10,Rain,Heavy Rain,40,2013-10-10 11:51:00
7:54 AM,57.0,55.9,96,30.12,2.5,NE,18.4,-,0.11,Rain,Rain,40,2013-10-10 11:54:00
8:02 AM,57.2,55.4,94,30.12,4.0,NE,15.0,23.0,0.02,Rain,Rain,40,2013-10-10 12:02:00
8:25 AM,57.2,55.4,94,30.11,2.5,NE,18.4,25.3,0.09,Rain,Rain,40,2013-10-10 12:25:00
8:32 AM,57.2,55.4,94,30.11,4.0,NE,18.4,25.3,0.09,Rain,Light Rain,40,2013-10-10 12:32:00
8:54 AM,57.9,57.0,97,30.11,6.0,NE,16.1,23.0,0.10,Rain,Light Rain,40,2013-10-10 12:54:00
9:54 AM,59.0,57.9,96,30.10,9.0,NE,12.7,24.2,0.01,Rain,Light Rain,50,2013-10-10 13:54:00
10:54 AM,60.1,57.9,93,30.09,8.0,NE,15.0,26.5,0.00,Rain,Light Rain,50,2013-10-10 14:54:00
11:54 AM,60.1,59.0,96,30.09,6.0,NE,13.8,23.0,0.00,Rain,Light Rain,50,2013-10-10 15:54:00
12:54 PM,60.1,59.0,96,30.06,5.0,NE,18.4,24.2,0.00,Rain,Light Rain,50,2013-10-10 16:54:00
1:54 PM,61.0,60.1,97,30.03,2.5,NE,15.0,26.5,0.00,Rain,Light Rain,40,2013-10-10 17:54:00
2:03 PM,60.8,59.0,94,30.03,4.0,NE,15.0,26.5,0.00,Rain,Light Rain,40,2013-10-10 18:03:00
2:29 PM,60.8,59.0,94,30.03,1.8,NE,16.1,25.3,0.00,Rain,Light Rain,40,2013-10-10 18:29:00
2:44 PM,60.8,60.8,100,30.03,2.5,NE,18.4,23.0,0.01,Rain,Light Rain,50,2013-10-10 18:44:00
2:54 PM,61.0,60.1,97,30.03,4.0,NE,12.7,21.9,0.01,Rain,Light Rain,40,2013-10-10 18:54:00
3:39 PM,60.8,60.8,100,30.02,2.5,NE,10.4,-,0.00,Rain,Light Rain,40,2013-10-10 19:39:00
3:50 PM,60.8,60.8,100,30.01,3.0,NE,16.1,21.9,0.00,Rain,Light Rain,40,2013-10-10 19:50:00
3:54 PM,61.0,60.1,97,30.01,4.0,NE,15.0,-,0.00,Rain,Light Rain,40,2013-10-10 19:54:00
4:21 PM,62.6,60.8,94,30.01,2.5,NE,17.3,-,0.00,Rain,Light Rain,40,2013-10-10 20:21:00
4:29 PM,62.6,60.8,94,30.00,3.0,NE,13.8,24.2,0.00,Rain,Light Rain,50,2013-10-10 20:29:00
4:54 PM,62.1,60.1,93,30.00,9.0,NE,15.0,24.2,0.01,,Overcast,50,2013-10-10 20:54:00
5:09 PM,62.6,60.8,94,30.00,2.5,NE,12.7,21.9,0.00,Rain,Light Rain,50,2013-10-10 21:09:00
5:25 PM,62.6,60.8,94,30.00,3.0,NE,16.1,-,0.00,Rain,Light Rain,50,2013-10-10 21:25:00
5:39 PM,62.6,60.8,94,30.00,2.5,NE,15.0,23.0,0.00,Rain,Light Rain,50,2013-10-10 21:39:00
5:54 PM,62.1,61.0,96,29.99,2.0,NE,13.8,21.9,0.00,Rain,Light Rain,50,2013-10-10 21:54:00
6:08 PM,62.6,60.8,94,30.00,4.0,NE,13.8,-,0.00,Rain,Light Rain,50,2013-10-10 22:08:00
6:19 PM,62.6,60.8,94,30.00,2.0,NE,15.0,-,0.01,Rain,Light Rain,50,2013-10-10 22:19:00
6:30 PM,62.6,60.8,94,30.00,4.0,NE,15.0,23.0,0.01,Rain,Light Rain,40,2013-10-10 22:30:00
6:54 PM,62.1,61.0,96,29.99,5.0,NE,15.0,21.9,0.01,,Overcast,50,2013-10-10 22:54:00
7:54 PM,62.1,62.1,100,29.98,4.0,NE,13.8,-,0.01,Rain,Light Rain,50,2013-10-10 23:54:00
8:54 PM,63.0,62.1,97,29.97,3.0,NE,11.5,19.6,0.03,Rain,Light Rain,50,2013-10-11 00:54:00
9:54 PM,63.0,62.1,97,29.97,4.0,NE,13.8,-,0.03,Rain,Light Rain,50,2013-10-11 01:54:00
10:54 PM,63.0,62.1,97,29.97,5.0,NE,11.5,-,0.01,Rain,Light Rain,50,2013-10-11 02:54:00
11:54 PM,63.0,62.1,97,29.95,4.0,NE,11.5,23.0,0.01,Rain,Light Rain,50,2013-10-11 03:54:00